�������l�o���
Date,Time,MP-1(��Sv/h),MP-2(��Sv/h),MP-3(��Sv/h),MP-4(��Sv/h),MP-5(��Sv/h),MP-6(��Sv/h),MP-7(��Sv/h),MP-8(��Sv/h),����,����(m/s),���J
2020/12/05,00:00,0.670,0.969,0.610,1.213,0.856,0.383,0.674,0.633,��,2.3,��
2020/12/05,00:10,0.669,0.967,0.612,1.213,0.858,0.380,0.675,0.636,��,2.5,��
2020/12/05,00:20,0.671,0.971,0.613,1.214,0.857,0.382,0.675,0.635,���k��,2.0,��
2020/12/05,00:30,0.671,0.970,0.611,1.215,0.857,0.381,0.675,0.635,���k��,3.2,��
2020/12/05,00:40,0.671,0.967,0.612,1.215,0.856,0.382,0.673,0.634,���k��,3.6,��
2020/12/05,00:50,0.670,0.966,0.610,1.215,0.857,0.381,0.674,0.635,���k��,4.5,��
2020/12/05,01:00,0.670,0.967,0.612,1.213,0.856,0.382,0.676,0.634,���k��,3.9,��
2020/12/05,01:10,0.671,0.968,0.611,1.215,0.855,0.383,0.676,0.635,���k��,3.8,��
2020/12/05,01:20,0.671,0.968,0.612,1.213,0.854,0.383,0.674,0.635,���k��,3.9,��
2020/12/05,01:30,0.670,0.969,0.613,1.214,0.858,0.381,0.674,0.634,���k��,3.9,��
2020/12/05,01:40,0.671,0.968,0.612,1.215,0.857,0.381,0.673,0.636,���k��,3.4,��
2020/12/05,01:50,0.673,0.969,0.611,1.214,0.856,0.381,0.674,0.634,���k��,3.5,��
2020/12/05,02:00,0.671,0.968,0.610,1.213,0.855,0.382,0.675,0.635,���k��,3.0,��
2020/12/05,02:10,0.671,0.967,0.613,1.218,0.854,0.383,0.673,0.636,���k��,2.5,��
2020/12/05,02:20,0.670,0.967,0.611,1.214,0.855,0.382,0.676,0.635,���k��,2.6,��
2020/12/05,02:30,0.671,0.967,0.612,1.214,0.856,0.382,0.674,0.634,��,2.0,��
2020/12/05,02:40,0.670,0.967,0.611,1.215,0.856,0.383,0.675,0.636,��,1.9,��
2020/12/05,02:50,0.669,0.965,0.612,1.215,0.857,0.382,0.674,0.636,��,1.9,��
2020/12/05,03:00,0.669,0.967,0.612,1.213,0.856,0.382,0.674,0.634,���k��,2.0,��
2020/12/05,03:10,0.672,0.966,0.612,1.213,0.855,0.382,0.674,0.635,���k��,2.0,��
2020/12/05,03:20,0.669,0.968,0.612,1.214,0.857,0.381,0.674,0.634,���k��,2.3,��
2020/12/05,03:30,0.671,0.967,0.610,1.213,0.856,0.382,0.673,0.636,���k��,2.2,��
2020/12/05,03:40,0.670,0.967,0.612,1.216,0.855,0.382,0.675,0.634,�k��,2.5,��
2020/12/05,03:50,0.669,0.969,0.611,1.215,0.857,0.383,0.674,0.635,�k��,2.8,��
2020/12/05,04:00,0.670,0.968,0.612,1.214,0.857,0.382,0.676,0.636,�k��,2.2,��
2020/12/05,04:10,0.670,0.967,0.611,1.214,0.858,0.381,0.674,0.633,�k��,2.0,��
2020/12/05,04:20,0.669,0.967,0.612,1.214,0.857,0.383,0.674,0.635,�k��,2.0,��
2020/12/05,04:30,0.670,0.967,0.611,1.214,0.857,0.381,0.676,0.635,�k��,1.7,��
2020/12/05,04:40,0.671,0.969,0.612,1.213,0.854,0.380,0.674,0.635,���k��,1.7,��
2020/12/05,04:50,0.672,0.969,0.612,1.215,0.857,0.382,0.676,0.635,���k��,1.4,��
2020/12/05,05:00,0.670,0.967,0.612,1.216,0.856,0.382,0.675,0.633,�k��,1.5,��
2020/12/05,05:10,0.671,0.969,0.612,1.216,0.857,0.382,0.676,0.634,���k��,1.7,��
2020/12/05,05:20,0.670,0.967,0.612,1.215,0.855,0.382,0.674,0.635,��,1.9,��
2020/12/05,05:30,0.671,0.968,0.612,1.214,0.857,0.383,0.675,0.635,��,1.2,��
2020/12/05,05:40,0.670,0.966,0.610,1.213,0.855,0.382,0.673,0.635,���k��,0.9,��
2020/12/05,05:50,0.672,0.969,0.611,1.215,0.857,0.382,0.673,0.634,��,1.5,��
2020/12/05,06:00,0.671,0.969,0.612,1.216,0.857,0.382,0.674,0.636,���쐼,1.9,��
2020/12/05,06:10,0.673,0.967,0.612,1.215,0.857,0.383,0.675,0.635,���쐼,2.6,��
2020/12/05,06:20,0.671,0.968,0.613,1.215,0.856,0.382,0.675,0.637,�쐼,3.1,��
2020/12/05,06:30,0.671,0.969,0.613,1.215,0.857,0.382,0.676,0.636,�쐼,3.2,��
2020/12/05,06:40,0.671,0.968,0.612,1.213,0.857,0.382,0.675,0.636,�쐼,2.5,��
2020/12/05,06:50,0.671,0.966,0.612,1.216,0.857,0.381,0.675,0.634,�쐼,3.1,��
2020/12/05,07:00,0.672,0.968,0.612,1.217,0.857,0.383,0.676,0.636,��쐼,2.3,�L
2020/12/05,07:10,0.671,0.969,0.612,1.215,0.857,0.382,0.675,0.636,��쐼,2.0,�L
2020/12/05,07:20,0.669,0.967,0.614,1.214,0.854,0.382,0.674,0.636,�쐼,1.7,��
2020/12/05,07:30,0.673,0.968,0.612,1.215,0.855,0.382,0.674,0.635,��쐼,2.3,��
2020/12/05,07:40,0.672,0.967,0.613,1.215,0.858,0.382,0.677,0.635,��쐼,2.3,��
2020/12/05,07:50,0.672,0.966,0.612,1.215,0.855,0.381,0.675,0.636,�쐼,2.3,��
2020/12/05,08:00,0.672,0.967,0.612,1.214,0.857,0.382,0.677,0.635,��쐼,1.9,�L
2020/12/05,08:10,0.672,0.965,0.613,1.213,0.855,0.384,0.676,0.634,��쐼,2.8,�L
2020/12/05,08:20,0.671,0.967,0.613,1.213,0.858,0.382,0.675,0.635,��쐼,3.3,�L
2020/12/05,08:30,0.672,0.964,0.614,1.217,0.857,0.381,0.676,0.635,��쐼,3.9,��
2020/12/05,08:40,0.673,0.967,0.614,1.215,0.856,0.382,0.675,0.635,��쐼,4.1,��
2020/12/05,08:50,0.672,0.965,0.611,1.216,0.856,0.383,0.676,0.634,��쐼,4.2,��
2020/12/05,09:00,0.672,0.966,0.613,1.213,0.857,0.383,0.675,0.637,��쐼,4.3,��
2020/12/05,09:10,0.671,0.965,0.612,1.213,0.857,0.382,0.676,0.634,��쐼,4.6,��
2020/12/05,09:20,0.673,0.966,0.613,1.215,0.857,0.383,0.677,0.635,��쐼,4.1,�L
2020/12/05,09:30,0.673,0.964,0.613,1.215,0.856,0.382,0.678,0.636,��쐼,4.8,�L
2020/12/05,09:40,0.672,0.964,0.614,1.214,0.858,0.383,0.677,0.635,��쐼,4.8,�L
2020/12/05,09:50,0.674,0.963,0.613,1.216,0.855,0.382,0.676,0.636,��쐼,4.7,�L
2020/12/05,10:00,0.674,0.966,0.613,1.213,0.857,0.382,0.675,0.635,��쐼,5.5,�L
2020/12/05,10:10,0.674,0.966,0.613,1.213,0.859,0.383,0.675,0.635,��,6.7,�L
2020/12/05,10:20,0.675,0.965,0.612,1.214,0.856,0.384,0.675,0.637,��,6.7,�L
2020/12/05,10:30,0.675,0.968,0.613,1.216,0.857,0.384,0.677,0.638,��쐼,5.3,�L
2020/12/05,10:40,0.675,0.965,0.616,1.216,0.858,0.382,0.675,0.636,��쐼,4.3,�L
2020/12/05,10:50,0.675,0.966,0.613,1.218,0.857,0.384,0.676,0.636,��쐼,6.0,�L
2020/12/05,11:00,0.674,0.968,0.612,1.216,0.858,0.384,0.676,0.637,��쐼,5.5,�L
2020/12/05,11:10,0.675,0.965,0.614,1.216,0.857,0.385,0.676,0.636,�쐼,5.7,�L
2020/12/05,11:20,0.675,0.964,0.615,1.214,0.857,0.383,0.675,0.637,�쐼,4.8,�L
2020/12/05,11:30,0.674,0.963,0.614,1.217,0.855,0.384,0.676,0.636,�쐼,4.9,�L
2020/12/05,11:40,0.671,0.964,0.614,1.215,0.855,0.386,0.676,0.636,���쐼,5.1,�L
2020/12/05,11:50,0.672,0.961,0.613,1.212,0.854,0.382,0.674,0.637,���쐼,5.4,�L
2020/12/05,12:00,0.670,0.962,0.611,1.215,0.853,0.384,0.673,0.636,���쐼,4.8,�L
2020/12/05,12:10,0.670,0.957,0.612,1.213,0.852,0.386,0.675,0.636,�쐼,5.0,�L
2020/12/05,12:20,0.671,0.955,0.610,1.211,0.850,0.383,0.675,0.636,�쐼,4.7,�L
2020/12/05,12:30,0.670,0.956,0.612,1.211,0.851,0.384,0.674,0.633,�쐼,4.4,�L
2020/12/05,12:40,0.672,0.956,0.610,1.210,0.850,0.383,0.674,0.636,�쐼,5.1,�L
2020/12/05,12:50,0.668,0.956,0.611,1.209,0.848,0.385,0.674,0.634,��쐼,4.4,�L
2020/12/05,13:00,0.668,0.951,0.611,1.210,0.847,0.383,0.673,0.634,��쐼,3.8,�L
2020/12/05,13:10,0.667,0.952,0.610,1.207,0.848,0.386,0.675,0.633,��쐼,3.7,�L
2020/12/05,13:20,0.669,0.952,0.608,1.208,0.848,0.383,0.673,0.634,��쐼,3.4,��
2020/12/05,13:30,0.668,0.954,0.606,1.207,0.847,0.383,0.672,0.634,��쐼,3.7,�L
2020/12/05,13:40,0.667,0.951,0.608,1.209,0.846,0.383,0.672,0.636,��,4.4,��
2020/12/05,13:50,0.668,0.951,0.605,1.207,0.846,0.382,0.673,0.633,��,3.8,��
2020/12/05,14:00,0.666,0.949,0.607,1.205,0.847,0.382,0.674,0.635,��,3.0,��
2020/12/05,14:10,0.666,0.950,0.608,1.208,0.846,0.382,0.674,0.633,��,4.3,�L
2020/12/05,14:20,0.668,0.953,0.606,1.208,0.846,0.383,0.674,0.632,��,4.7,�L
2020/12/05,14:30,0.666,0.952,0.608,1.206,0.846,0.383,0.674,0.634,��,4.8,�L
2020/12/05,14:40,0.667,0.951,0.607,1.206,0.845,0.382,0.672,0.633,��,4.6,�L
2020/12/05,14:50,0.666,0.952,0.607,1.206,0.846,0.381,0.673,0.634,��,4.2,�L
2020/12/05,15:00,0.664,0.953,0.606,1.204,0.846,0.380,0.672,0.635,��,4.7,�L
2020/12/05,15:10,0.666,0.951,0.607,1.206,0.846,0.382,0.672,0.632,��,4.5,��
2020/12/05,15:20,0.666,0.953,0.607,1.207,0.843,0.381,0.672,0.634,��,4.2,�L
2020/12/05,15:30,0.666,0.952,0.604,1.205,0.846,0.381,0.672,0.634,��,4.5,�L
2020/12/05,15:40,0.665,0.954,0.605,1.206,0.846,0.381,0.675,0.634,��,4.4,�L
2020/12/05,15:50,0.665,0.950,0.607,1.205,0.845,0.381,0.672,0.633,��,4.2,�L
2020/12/05,16:00,0.666,0.951,0.605,1.205,0.843,0.382,0.673,0.634,��,4.4,�L
2020/12/05,16:10,0.664,0.950,0.605,1.203,0.844,0.381,0.672,0.633,��쐼,4.4,�L
2020/12/05,16:20,0.668,0.950,0.607,1.206,0.844,0.381,0.673,0.633,��쐼,4.5,�L
2020/12/05,16:30,0.664,0.950,0.605,1.206,0.845,0.381,0.672,0.633,��,5.4,�L
2020/12/05,16:40,0.666,0.952,0.607,1.208,0.844,0.381,0.672,0.633,��,5.1,�L
2020/12/05,16:50,0.664,0.950,0.606,1.206,0.845,0.383,0.671,0.633,��,5.1,�L
2020/12/05,17:00,0.665,0.948,0.607,1.204,0.846,0.381,0.672,0.632,��,4.7,�L
2020/12/05,17:10,0.663,0.948,0.606,1.203,0.842,0.380,0.673,0.633,��,4.9,�L
2020/12/05,17:20,0.661,0.945,0.605,1.203,0.842,0.382,0.673,0.633,��쓌,4.8,�L
2020/12/05,17:30,0.661,0.945,0.606,1.202,0.843,0.380,0.672,0.632,��,5.6,�L
2020/12/05,17:40,0.662,0.944,0.605,1.202,0.844,0.382,0.672,0.631,��,4.4,�L
2020/12/05,17:50,0.663,0.944,0.605,1.201,0.843,0.382,0.671,0.632,��,3.1,�L
2020/12/05,18:00,0.661,0.946,0.604,1.204,0.842,0.382,0.672,0.632,��쐼,2.9,�L
2020/12/05,18:10,0.660,0.945,0.605,1.200,0.843,0.382,0.672,0.632,��쐼,3.7,�L
2020/12/05,18:20,0.662,0.944,0.604,1.202,0.843,0.382,0.672,0.630,�쐼,2.6,�L
2020/12/05,18:30,0.660,0.944,0.603,1.202,0.840,0.383,0.672,0.632,��,1.5,��
2020/12/05,18:40,0.660,0.943,0.603,1.201,0.841,0.382,0.670,0.632,��,1.4,��
2020/12/05,18:50,0.659,0.943,0.603,1.203,0.841,0.382,0.672,0.633,��,0.9,��
2020/12/05,19:00,0.661,0.946,0.603,1.203,0.840,0.382,0.672,0.629,�쐼,1.2,��
2020/12/05,19:10,0.658,0.947,0.602,1.200,0.840,0.382,0.669,0.632,���k��,1.7,��
2020/12/05,19:20,0.660,0.944,0.603,1.202,0.841,0.381,0.671,0.631,���k��,1.9,��
2020/12/05,19:30,0.661,0.945,0.602,1.199,0.842,0.380,0.672,0.632,�k�k��,2.6,��
2020/12/05,19:40,0.659,0.943,0.603,1.200,0.841,0.381,0.671,0.631,�k�k��,1.7,��
2020/12/05,19:50,0.660,0.946,0.603,1.202,0.841,0.380,0.671,0.631,-,CALM,��
2020/12/05,20:00,0.660,0.945,0.603,1.201,0.840,0.382,0.670,0.631,���k��,1.1,��
2020/12/05,20:10,0.660,0.946,0.603,1.203,0.842,0.382,0.671,0.632,�k��,2.5,��
2020/12/05,20:20,0.657,0.946,0.604,1.200,0.841,0.381,0.671,0.630,�k�k��,2.9,��
2020/12/05,20:30,0.658,0.946,0.602,1.199,0.842,0.380,0.670,0.631,�k�k��,2.2,��
2020/12/05,20:40,0.659,0.945,0.602,1.201,0.839,0.380,0.669,0.631,�k��,2.6,��
2020/12/05,20:50,0.658,0.946,0.602,1.202,0.840,0.381,0.670,0.631,�k��,2.6,��
2020/12/05,21:00,0.659,0.945,0.602,1.199,0.840,0.380,0.668,0.630,��,2.0,��
2020/12/05,21:10,0.660,0.944,0.600,1.201,0.842,0.381,0.672,0.631,���k��,1.7,��
2020/12/05,21:20,0.660,0.943,0.602,1.200,0.841,0.381,0.669,0.632,��,1.2,��
2020/12/05,21:30,0.658,0.944,0.601,1.201,0.839,0.380,0.670,0.631,�쐼,1.7,��
2020/12/05,21:40,0.657,0.944,0.601,1.201,0.840,0.380,0.672,0.630,���쐼,1.2,��
2020/12/05,21:50,0.659,0.943,0.602,1.201,0.841,0.380,0.670,0.629,�쐼,1.5,��
2020/12/05,22:00,0.658,0.944,0.602,1.200,0.840,0.382,0.670,0.630,�쐼,2.3,��
2020/12/05,22:10,0.661,0.944,0.600,1.200,0.840,0.380,0.670,0.630,���쐼,2.6,��
2020/12/05,22:20,0.658,0.944,0.602,1.201,0.840,0.380,0.669,0.631,���쐼,3.1,��
2020/12/05,22:30,0.659,0.945,0.603,1.199,0.838,0.380,0.669,0.629,�쐼,3.1,��
2020/12/05,22:40,0.659,0.946,0.603,1.201,0.840,0.380,0.668,0.629,�쐼,3.2,��
2020/12/05,22:50,0.658,0.945,0.602,1.200,0.841,0.380,0.669,0.629,��,2.0,��
2020/12/05,23:00,0.659,0.945,0.601,1.199,0.840,0.381,0.668,0.631,���쐼,1.2,��
2020/12/05,23:10,0.658,0.945,0.601,1.200,0.841,0.378,0.669,0.630,���k��,2.0,��
2020/12/05,23:20,0.659,0.942,0.602,1.198,0.842,0.380,0.670,0.631,���k��,3.0,��
2020/12/05,23:30,0.660,0.945,0.602,1.198,0.840,0.381,0.670,0.630,�k��,3.4,��
2020/12/05,23:40,0.659,0.944,0.602,1.200,0.840,0.380,0.669,0.631,�k��,0.9,��
2020/12/05,23:50,0.659,0.945,0.602,1.199,0.839,0.381,0.671,0.631,�k��,1.5,��
